OpenBCM V1.08-3-g9b42 (Linux)

Packet Radio Mailbox

OK0NBR

[Sao_Jose_dos_Campo]

 Login: GUEST





  
I0OJJ  > KEPS     29.12.25 22:37l 322 Lines 15316 Bytes #302 (0) @ AMSAT
BID : ORB25364.1
Read: GUEST
Subj: 2Line Orbital Elements 25364.AMSAT
Path: OK0NBR<SR1BSZ<EA2RCF<I0OJJ
Sent: 251230/0021z @:I0OJJ.ITA.EU [Rome] obcm1.08-11-2-gbfe9
From: I0OJJ @ I0OJJ.ITA.EU (Gustavo)
To:   KEPS @ AMSAT
X-Info: This message was generated automatically


QST de W1STR

AMSAT Orbital Elements for Amateur Satellites in TLE Format
From Orbital Analysis Office
New England Sci-Tech STEM Education Center
Natick MA December 30, 2025
To all radio amateurs


These element sets describe the orbits of various satellites 
in use by the amateur radio community. For details see:
www.amsat.org/keplerian-elements-formats/

A daily update of element sets is available at:
www.amsat.org/tle/daily-bulletin.txt
or without bulletin text:
www.amsat.org/tle/dailytle.txt


AO-07
1 07530U 74089B   25363.58485948 -.00000024  00000-0  13809-3 0  9994
2 07530 101.9965  10.0293 0012407  94.9555  22.0732 12.53694572339267
UO-11
1 14781U 84021B   25363.78176493  .00003098  00000-0  32515-3 0  9999
2 14781  97.7832 326.5481 0008547  34.6396 325.5377 14.90205718231895
AO-27
1 22825U 93061C   25363.78108191  .00000196  00000-0  91600-4 0  9998
2 22825  98.7122  66.0869 0007553 232.9785 127.0707 14.30883510682778
FO-29
1 24278U 96046B   25363.48284838  .00000014  00000-0  49111-4 0  9997
2 24278  98.5452 230.3696 0349941 176.5135 183.8567 13.53263615450210
GO-32
1 25397U 98043D   25363.49542435  .00000161  00000-0  89901-4 0  9994
2 25397  98.9937 347.0955 0001461  28.3905 331.7352 14.24382234427173
ISS
1 25544U 98067A   25363.50072365  .00018472  00000-0  33150-3 0  9994
2 25544  51.6323  59.4638 0003290 318.5670  41.5069 15.49944447545450
NO-44
1 26931U 01043C   25363.36052313  .00000346  00000-0  16019-3 0  9994
2 26931  67.0518 323.4952 0007382 268.9907  91.0349 14.31865428266135
SO-50
1 27607U 02058C   25363.19838554  .00003121  00000-0  38855-3 0  9998
2 27607  64.5542 294.7269 0072910 293.5148  65.8309 14.82467479239254
CO-55
1 27844U 03031E   25363.59177093  .00000568  00000-0  26553-3 0  9995
2 27844  98.6762   9.2773 0008913 323.5075  36.5496 14.24194973167538
CO-57
1 27848U 03031J   25363.49619430  .00000464  00000-0  22323-3 0  9990
2 27848  98.6793   9.0317 0009120 342.8564  17.2306 14.23500498167231
RS-22
1 27939U 03042A   25363.83782846  .00001373  00000-0  22184-3 0  9998
2 27939  98.3374 178.4935 0012497  85.8425  25.6331 14.73020818190619
CO-58
1 28895U 05043F   25363.36831866  .00002930  00000-0  47467-3 0  9999
2 28895  98.2729 150.7291 0014715  28.4741 331.7266 14.71967948 76760
CO-65
1 32785U 08021C   25351.68477250  .00005656  00000-0  38073-3 0  9997
2 32785  97.8081 324.8433 0007829 290.5969  69.4418 15.07103756957832
CO-66
1 32791U 08021J   25363.49844358  .00026710  00000-0  10431-2 0  9994
2 32791  97.7454 349.2287 0003662 146.8226 213.3241 15.25864540961351
RS-30
1 32953U 08025A   25363.85249921  .00000105  00000-0  68708-3 0  9994
2 32953  82.5026 100.7802 0018457 322.7160  37.2638 12.43172886798657
SRMSAT
1 37841U 11058D   25363.29010383  .00000510  00000-0  13309-3 0  9998
2 37841  19.9734   7.7886 0011940 134.1503 342.1841 14.11517618733782
ZACUBE-1
1 39417U 13066B   25351.39749824  .00003280  00000-0  27002-3 0  9999
2 39417  97.8056 307.9496 0042001 132.1904 228.2897 14.99124350653477
Delfi-N3xt
1 39428U 13066N   25363.70942561  .00015100  00000-0  13987-2 0  9992
2 39428  97.8344 279.5115 0080448  50.4083 310.4203 14.92114907649322
GOMX-1
1 39430U 13066Q   25363.86649808  .00004888  00000-0  74756-3 0  9993
2 39430  97.6585 209.9220 0128899 261.2088  97.4503 14.68684321645050
LO-74
1 39440U 13066AA  25351.56788106  .00003439  00000-0  33426-3 0  9993
2 39440  97.8708 295.2332 0058016 269.4523  90.0047 14.92015584649893
AO-73
1 39444U 13066AE  25363.13180107  .00015003  00000-0  10068-2 0  9996
2 39444  97.8074 326.6159 0040408  62.6197 297.9132 15.06248574654033
DTUSAT-2
1 40030U 14033W   25351.70002679  .00007073  00000-0  41774-3 0  9998
2 40030  98.0754 333.4459 0009697 125.2587 234.9550 15.11812878625232
EO-80
1 40032U 14033Y   25363.49025800  .00013794  00000-0  80304-3 0  9999
2 40032  98.0658 345.2746 0009260  43.1930 317.0023 15.12125286626996
LILACSAT-2
1 40908U 15049K   25363.83496471  .00022396  00000-0  47114-3 0  9993
2 40908  97.4902  29.7479 0009027 137.5426 222.6522 15.45274285569541
IO-86
1 40931U 15052B   25151.18580175  .00001241  00000-0  78118-4 0  9996
2 40931   6.0006  24.0987 0012733 338.8432  21.1169 14.78805930523159
Horyu-4
1 41340U 16012D   25362.63911169  .00059297  00000-0  93754-3 0  9999
2 41340  30.9919 200.6946 0006415  29.2560 330.8448 15.52137576544029
Lapan A3
1 41603U 16040E   25363.87728947  .00006838  00000-0  22553-3 0  9991
2 41603  97.1435   0.8122 0008646 261.3109  98.7154 15.31707331528880
CAS-2T
1 41847U 16066G   25363.73608605  .00001728  00000-0  25412-3 0  9992
2 41847  98.4017  76.3109 0342465 283.5137  72.8119 14.44176219480339
TechnoSat
1 42829U 17042E   25363.43356595  .00005885  00000-0  43395-3 0  9991
2 42829  97.4055 162.9241 0016842 318.5816  41.4132 15.03551772461186
AO-91
1 43017U 17073E   25363.62017227  .00014862  00000-0  69407-3 0  9999
2 43017  97.4942 229.4360 0159460 191.9940 167.7474 15.09239613439782
S-Net D
1 43186U 18014G   25363.73456998  .00010219  00000-0  55679-3 0  9994
2 43186  97.5490 264.6884 0006865 240.9392 119.1152 15.14580007433090
S-Net B
1 43187U 18014H   25363.61076506  .00010479  00000-0  57119-3 0  9994
2 43187  97.5492 264.5463 0007657 236.3940 123.6561 15.14551699433070
S-Net A
1 43188U 18014J   25363.73420716  .00010101  00000-0  55027-3 0  9992
2 43188  97.5501 264.8479 0007487 236.2794 123.7725 15.14586181433098
S-Net C
1 43189U 18014K   25363.21737527  .00010244  00000-0  55855-3 0  9994
2 43189  97.5517 264.3831 0009087 230.8099 129.2326 15.14537842431567
Ten-Koh
1 43677U 18084G   25363.76757287  .00004674  00000-0  36206-3 0  9997
2 43677  98.0755 184.0794 0007972 337.1997  22.8871 15.01931857390729
PO-101
1 43678U 18084H   25363.80186470  .00005062  00000-0  41686-3 0  9993
2 43678  98.1059 187.9550 0007314   2.4779 357.6478 14.99545615390822
QO-100
1 43700U 18090A   25363.74518163  .00000165  00000-0  00000+0 0  9997
2 43700   0.0188  24.6076 0001378 279.6114  88.2542  1.00270652 25972
MinXSS-2
1 43758U 18099A   25363.77004734  .00040284  00000-0  11649-2 0  9996
2 43758  97.4777  71.3736 0009846 150.4298 209.7504 15.35465813388033
AO-95
1 43770U 18099N   25363.09694319  .00018415  00000-0  80071-3 0  9996
2 43770  97.4659  59.2599 0008577 220.3396 139.7204 15.22288137387300
SNUSat 2
1 43782U 18099AA  25363.13380363  .00013588  00000-0  65866-3 0  9996
2 43782  97.4335  54.2605 0011394 163.2914 196.8698 15.18585215387199
SnugLite
1 43784U 18099AC  25363.07985663  .00018555  00000-0  79797-3 0  9992
2 43784  97.4150  54.3132 0003691 145.8636 214.2839 15.22686398387393
ITASat 1
1 43786U 18099AE  25363.65905397  .00011924  00000-0  61654-3 0  9990
2 43786  97.4305  53.6182 0012327 218.2497 141.7863 15.16346332387193
EAGLET 1
1 43790U 18099AJ  25363.39097775  .00007172  00000-0  42914-3 0  9996
2 43790  97.4506  52.4997 0010717 204.9873 155.0840 15.11286709386674
ESEO
1 43792U 18099AL  25363.65262907  .00003171  00000-0  23605-3 0  9999
2 43792  97.4237  43.1451 0012137 183.8755 176.2379 15.03568466386329
JO-97
1 43803U 18099AX  25363.39357550  .00025585  00000-0  95344-3 0  9994
2 43803  97.4403  61.1595 0007112 144.3088 215.8628 15.27408426387653
Suomi 100
1 43804U 18099AY  25363.14125090  .00018793  00000-0  78195-3 0  9998
2 43804  97.4462  59.4760 0011531 153.7102 206.4723 15.23751078387487
ISAT
1 43879U 18111D   25363.73389904  .00059830  00000-0  13416-2 0  9997
2 43879  97.5911 284.1293 0005920 167.3178 192.8219 15.43191305384866
UWE-4
1 43880U 18111E   25363.71485916  .00039171  00000-0  11395-2 0  9997
2 43880  97.5862 280.7203 0008290 199.9423 160.1497 15.35298356384684
Sparrow
1 43881U 18111F   25363.75731394  .00066644  00000-0  13743-2 0  9990
2 43881  97.6098 288.0140 0002727 196.7206 163.3953 15.45655407384992
Prox-1
1 44339U 19036A   25363.77089759  .00021883  00000-0  24300-2 0  9996
2 44339  23.9939 161.9284 0005987 238.4526 121.5388 14.85664513348208
Taurus 1
1 44530U 19059C   25363.86452777  .00016449  00000-0  27787-2 0  9992
2 44530  98.6228 153.6658 0009076 122.2561 237.9523 14.69452804333753
TO-108
1 44881U 19093C   25363.86979110  .00001004  00000-0  12049-3 0  9991
2 44881  97.7737  75.1169 0012353 286.3978  73.5879 14.86142607326260
FloripaSat 1
1 44885U 19093G   25363.83875634  .00010925  00000-0  84770-3 0  9990
2 44885  97.8015  92.1135 0009319 274.2211  85.7948 15.01510184327215
RS-44
1 44909U 19096E   25363.74497764 -.00000004  00000-0 -61253-4 0  9995
2 44909  82.5216  92.3099 0217687 180.3015 179.7991 12.79746298280674
SALSAT
1 46495U 20068K   25363.44424561  .00013448  00000-0  51504-3 0  9991
2 46495  97.8795 351.6223 0010582 166.7183 193.4335 15.26627960289433
CSS (TIANHE-1)
1 48274U 21035A   25363.74896411  .00025259  00000-0  30771-3 0  9999
2 48274  41.4672 273.3914 0009440 177.4495 182.6393 15.59870629266686
CUTE
1 49263U 21088D   25363.78303977  .00041619  00000-0  52029-3 0  9998
2 49263  97.4332  87.4058 0004901 196.2308 163.8792 15.59710005235952
TeikyoSat 4
1 49396U 21102B   25363.64767330  .00003810  00000-0  24625-3 0  9996
2 49396  97.3883  34.6109 0012896 150.3845 209.8117 15.08724299227158
Z-Sat
1 49399U 21102E   25363.86672541  .00005808  00000-0  29929-3 0  9993
2 49399  97.3569  39.2941 0018693 115.4279 244.8892 15.16605052227761
KOSEN 1
1 49402U 21102H   25363.64601860  .00012543  00000-0  51988-3 0  9994
2 49402  97.3459  44.1849 0016287  86.9753 273.3348 15.23907257228171
HO-113
1 50466U 21131B   25363.86886656  .00000799  00000-0  26163-3 0  9997
2 50466  98.5037  92.2033 0003199 239.3220 120.7654 14.41136531210723
